[[[{"header":{"parameterUnit":"kt","parameterCategory":2,"dx":1,"dy":1,"la1":30.253999710083008,"la2":30.299108505249023,"lo1":-89.0895004272461,"lo2":-89.04439544677734,"nx":28,"ny":28,"refTime":"2022-09-19T21:00:00:Z","depth":0,"parameterNumber":1,"parameterNumberName":"U-component_of_WINDS"},"data":[-2.0492,-2.0452,-2.0409,-2.0346,-2.0296,-2.0246,-2.0214,-2.0169,-2.0122,-2.0059,-2.0015,-1.9968,-1.9905,-1.9844,-1.9795,-1.9775,-1.9759,-1.978,-1.9753,-1.9697,-1.9687,-1.9677,-1.9683,-1.9776,-1.9776,-1.9817,-1.9817,-1.9818,-2.0469,-2.042,-2.0371,-2.0294,-2.0254,-2.021,-2.0146,-2.0115,-2.0071,-2.0011,-1.9964,-1.9904,-1.9851,-1.9777,-1.972,-1.9703,-1.9678,-1.9691,-1.9692,-1.9683,-1.9622,-1.963,-1.9713,-1.9713,-1.9713,-1.9713,-1.9713,-1.9713,-2.0415,-2.0392,-2.0318,-2.0264,-2.0213,-2.0162,-2.0133,-2.0073,-2.0025,-1.9955,-1.991,-1.9859,-1.9791,-1.9695,-1.9652,-1.9613,-1.959,-1.9589,-1.9589,-1.9591,-1.9601,-1.9558,-1.96,-1.9599,-1.9599,-1.9599,-1.9598,0,-2.0362,-2.0326,-2.0273,-2.0209,-2.0167,-2.0112,-2.0054,-2.0034,-1.994,-1.9904,-1.9848,-1.9808,-1.9731,-1.9674,-1.9607,-1.956,-1.9508,-1.9496,-1.9496,-1.9519,-1.9551,-1.9538,-1.9444,-1.9494,-1.9493,-1.9492,-1.9491,-1.9491,-2.0306,-2.0281,-2.0179,-2.0149,-2.0104,-2.0055,-2.0017,-1.9934,-1.9898,-1.9814,-1.9798,-1.9738,-1.9686,-1.9604,-1.9531,-1.9472,-1.9446,-1.9471,-1.9436,-1.9462,-1.945,-1.9454,-1.9453,-1.9479,-1.9481,-1.9482,-1.9483,0,-2.0281,-2.0202,-2.0148,-2.0046,-2.002,-1.9999,-1.9913,-1.9885,-1.9826,-1.9781,-1.9765,-1.9672,-1.9618,-1.9539,-1.9459,-1.9421,-1.9393,-1.9367,-1.9419,-1.9411,-1.9428,-1.9429,-1.9488,-1.9494,-1.9394,-1.9395,-1.9395,0,-2.0203,-2.0172,-2.0057,-2.0029,-1.9994,-1.9908,-1.9876,-1.9821,-1.9755,-1.9718,-1.9643,-1.961,-1.9512,-1.9468,-1.9409,-1.9372,-1.9355,-1.9324,-1.9309,-1.9331,-1.9336,-1.9311,-1.9307,-1.927,-1.927,-1.927,-1.927,0,-2.0171,-2.0069,-2.0023,-1.9987,-1.9873,-1.9854,-1.9805,-1.9728,-1.969,-1.9628,-1.9603,-1.9536,-1.95,-1.9451,-1.9376,-1.9356,-1.9326,-1.9283,-1.9294,-1.9297,-1.9291,-1.9292,-1.9366,-1.9269,-1.9269,-1.9269,-1.9269,0,-2.0094,-2.003,-1.9973,-1.9876,-1.9853,-1.9821,-1.9749,-1.9703,-1.9627,-1.9586,-1.9536,-1.9475,-1.943,-1.9395,-1.9335,-1.9331,-1.9301,-1.9265,-1.9264,-1.9255,-1.9217,-1.9273,-1.9348,-1.9354,-1.9251,-1.925,-1.925,0,-2.0083,-2.0001,-1.9923,-1.987,-1.9821,-1.974,-1.9703,-1.9636,-1.9578,-1.953,-1.9466,-1.941,-1.9365,-1.9336,-1.9317,-1.9249,-1.9255,-1.9246,-1.9182,-1.9181,-1.9209,-1.9277,-1.9308,-1.9341,-1.9247,-1.9247,-1.9247,0,-2.0062,-1.9916,-1.9912,-1.9867,-1.9759,-1.9716,-1.9674,-1.9597,-1.957,-1.9498,-1.9463,-1.9379,-1.9344,-1.9295,-1.9235,-1.922,-1.9249,-1.9182,-1.9179,-1.92,-1.9236,-1.9268,-1.9273,-1.9214,-1.9214,-1.9214,-1.9244,0,-1.9971,-1.9916,-1.9898,-1.9796,-1.9748,-1.9707,-1.9615,-1.9578,-1.9527,-1.9465,-1.9408,-1.9325,-1.9246,-1.9227,-1.9174,-1.9162,-1.9151,-1.9111,-1.9069,-1.9113,-1.9122,-1.9124,-1.9066,-1.9064,-1.9062,-1.9061,0,0,-1.9981,-1.9898,-1.9809,-1.9761,-1.9716,-1.9627,-1.9592,-1.9537,-1.9426,-1.9398,-1.9374,-1.9244,-1.9177,-1.9117,-1.9123,-1.9089,-1.908,-1.9065,-1.9092,-1.9096,-1.91,-1.911,-1.9114,-1.9058,-1.9058,-1.9057,-1.9057,0,-1.9927,-1.9858,-1.9821,-1.976,-1.9665,-1.9599,-1.9591,-1.948,-1.9438,-1.9377,-1.9304,-1.9258,-1.9152,-1.9093,-1.9049,-1.9071,-1.9018,-1.9053,-1.9098,-1.908,-1.9086,-1.9091,-1.9103,-1.9108,-1.9053,-1.9053,-1.9054,0,-1.9892,-1.981,-1.978,-1.9667,-1.9603,-1.9551,-1.9485,-1.9431,-1.9393,-1.9294,-1.9235,-1.9176,-1.9086,-1.9039,-1.9013,-1.899,-1.8968,-1.8955,-1.8962,-1.8957,-1.8936,-1.8943,-1.8949,-1.8865,-1.8865,-1.8865,0,0,-1.9858,-1.9803,-1.9685,-1.9648,-1.9613,-1.9512,-1.9473,-1.9415,-1.9334,-1.9303,-1.9224,-1.915,-1.9088,-1.9049,-1.8985,-1.8944,-1.892,-1.8936,-1.8945,-1.8952,-1.8952,-1.8932,-1.894,-1.8864,-1.8864,-1.8864,0,0,-1.9841,-1.9702,-1.9662,-1.9606,-1.9533,-1.9413,-1.9395,-1.9343,-1.9275,-1.9269,-1.9167,-1.9142,-1.9095,-1.9039,-1.9037,-1.8969,-1.8929,-1.8927,-1.9007,-1.9016,-1.9025,-1.904,-1.8956,0,0,0,0,0,-1.9736,-1.972,-1.9685,-1.9661,-1.9514,-1.9433,-1.9414,-1.9329,-1.9305,-1.9293,-1.922,-1.9163,-1.9018,-1.9014,-1.8993,-1.8995,-1.8851,-1.8853,-1.8856,-1.8949,-1.896,-1.8969,0,0,0,0,0,0,-1.9726,-1.9697,-1.9685,-1.9566,-1.9532,-1.9433,-1.9373,-1.9349,-1.9304,-1.9294,-1.9179,-1.9159,-1.9085,-1.9019,-1.9001,-1.9005,-1.8962,-1.8852,-1.8854,-1.8856,-1.8952,-1.8962,-1.897,0,0,0,0,0,-1.9718,-1.9694,-1.948,-1.9565,-1.9536,-1.942,-1.9372,-1.9352,-1.9315,-1.9199,-1.9177,-1.9255,-1.9088,-1.9067,-1.9008,-1.9016,-1.8973,-1.8967,-1.8853,-1.8855,-1.8856,-1.8957,0,0,0,0,0,0,-1.9711,-1.9676,-1.9472,-1.946,-1.9564,-1.9424,-1.9399,-1.9355,-1.9222,-1.92,-1.9271,-1.9265,-1.9089,-1.9073,-1.9057,-1.9024,-1.8983,-1.8977,-1.8973,-1.8855,-1.8856,-1.8857,0,0,0,0,0,0,-1.9688,-1.9666,-1.9466,-1.9469,-1.9456,-1.9428,-1.9406,-1.9342,-1.9221,-1.93,-1.9291,-1.927,-1.9113,-1.9077,-1.9064,-1.8968,-1.8991,-1.8984,-1.898,-1.8977,-1.8855,-1.8856,0,0,0,0,0,0,-1.9677,-1.9659,-1.9471,-1.9461,-1.945,-1.9309,-1.937,-1.9224,-1.9224,-1.9308,-1.9221,-1.922,-1.9119,-1.9104,-1.907,-1.8979,-1.8971,-1.899,-1.8986,-1.8983,-1.8981,0,0,0,0,0,0,0,-1.9669,-1.9812,-1.9544,-1.9456,-1.9446,-1.9349,-1.9346,-1.9343,-1.9223,-1.9222,-1.9221,-1.9221,-1.9026,-1.9019,-1.9012,-1.8989,0,0,-1.8991,-1.8988,0,0,0,0,0,0,0,0,-1.9818,-1.9813,-1.9543,-1.9541,-1.9538,-1.9349,-1.9346,-1.9343,-1.9223,-1.9222,-1.9222,-1.9221,-1.9024,-1.9019,-1.9013,0,0,0,0,0,0,0,0,0,0,0,0,0,0,0,-1.9543,-1.9541,0,-1.9348,-1.9346,-1.9344,-1.9223,-1.9222,-1.9222,-1.9221,-1.9023,-1.9018,-1.9014,0,0,0,0,0,0,0,0,0,0,0,0,0,0,0,0,0,0,0,0,0,0,0,0,0,0,0,0,0,0,0,0,0,0,0,0,0,0,0,0,0,0,0,0,0,0,0,0,0,0,0,0,0,0,0,0,0,0,0,0,0,0,0,0,0,0,0,0,0]}],[{"header":{"parameterUnit":"kt","parameterCategory":2,"dx":1,"dy":1,"la1":30.253999710083008,"la2":30.299108505249023,"lo1":-89.0895004272461,"lo2":-89.04439544677734,"nx":28,"ny":28,"refTime":"2022-09-19T21:00:00:Z","depth":0,"parameterNumber":2,"parameterNumberName":"V-component_of_WINDS"},"data":[6.3847,6.3815,6.3761,6.3699,6.3639,6.3585,6.3548,6.3493,6.3436,6.3363,6.3311,6.3251,6.3168,6.309,6.3028,6.3001,6.2976,6.3005,6.2967,6.2892,6.2877,6.2863,6.2865,6.3003,6.3003,6.305,6.3051,6.3051,6.3794,6.3735,6.3688,6.3603,6.3561,6.35,6.3427,6.3393,6.3346,6.3276,6.3222,6.3153,6.309,6.2995,6.2924,6.2903,6.2867,6.2887,6.2884,6.2871,6.279,6.2793,6.2917,6.2917,6.2917,6.2917,6.2917,6.2917,6.3682,6.3666,6.3582,6.3529,6.3472,6.3415,6.3389,6.3316,6.3266,6.3188,6.3131,6.3075,6.2991,6.2877,6.2824,6.2777,6.2743,6.2746,6.2745,6.2745,6.2752,6.268,6.2763,6.2763,6.2762,6.2762,6.2761,0,6.358,6.3534,6.3485,6.3419,6.3377,6.332,6.3257,6.324,6.3121,6.3086,6.3028,6.2984,6.2898,6.2834,6.2755,6.2698,6.2623,6.2613,6.2613,6.2635,6.2665,6.2641,6.2505,6.2609,6.2607,6.2606,6.2605,6.2605,6.3455,6.3446,6.3331,6.3304,6.3255,6.3213,6.3175,6.3072,6.3036,6.2943,6.2933,6.287,6.2813,6.2728,6.2637,6.2572,6.2533,6.2578,6.2522,6.2546,6.2524,6.2523,6.2518,6.2588,6.2591,6.2592,6.2594,0,6.3389,6.3297,6.3264,6.315,6.3121,6.3116,6.3016,6.2996,6.2926,6.2887,6.2872,6.276,6.2704,6.2606,6.2523,6.2472,6.2453,6.2422,6.2479,6.2465,6.249,6.2486,6.26,6.2607,6.2471,6.2473,6.2474,0,6.3242,6.3234,6.3095,6.3081,6.3067,6.2962,6.2951,6.2889,6.2816,6.2784,6.2688,6.266,6.2539,6.2496,6.2422,6.239,6.2377,6.2333,6.2311,6.2337,6.2341,6.2309,6.2299,6.2275,6.2274,6.2274,6.2273,0,6.314,6.3059,6.3036,6.3002,6.2879,6.287,6.2818,6.2736,6.2699,6.2637,6.2611,6.2548,6.251,6.2461,6.2365,6.233,6.2327,6.2258,6.228,6.2282,6.2279,6.2279,6.2412,6.2273,6.2272,6.2272,6.2272,0,6.3003,6.2945,6.2929,6.2821,6.2804,6.279,6.2718,6.2684,6.2603,6.2555,6.2506,6.2427,6.2397,6.2335,6.2289,6.2269,6.2238,6.2195,6.2195,6.2179,6.211,6.2188,6.2332,6.2339,6.2173,6.2172,6.2171,0,6.2908,6.2868,6.2776,6.2763,6.2728,6.2618,6.2601,6.2533,6.2468,6.2428,6.2355,6.2311,6.2246,6.2217,6.2209,6.2129,6.2156,6.2125,6.2059,6.2058,6.2075,6.2209,6.225,6.2314,6.216,6.2161,6.2162,0,6.2821,6.2672,6.2677,6.263,6.2526,6.2498,6.248,6.2413,6.239,6.2328,6.2305,6.2246,6.219,6.2146,6.2075,6.2071,6.2135,6.2012,6.2008,6.203,6.2148,6.2187,6.2198,6.2087,6.2089,6.209,6.2153,0,6.2621,6.259,6.26,6.2506,6.2471,6.2459,6.2353,6.2329,6.2263,6.2193,6.2163,6.2083,6.2014,6.2004,6.1941,6.1966,6.1944,6.1887,6.1813,6.1905,6.1922,6.193,6.1796,6.1793,6.1791,6.1789,0,0,6.2547,6.25,6.2399,6.2377,6.2339,6.2224,6.2219,6.217,6.2073,6.2048,6.2008,6.191,6.1847,6.1819,6.184,6.1816,6.1808,6.1781,6.1864,6.1873,6.1881,6.1901,6.1911,6.1785,6.1784,6.1783,6.1783,0,6.2449,6.2391,6.239,6.2334,6.2247,6.2173,6.2174,6.2066,6.2021,6.1994,6.1895,6.1865,6.1793,6.1734,6.1696,6.1784,6.1708,6.1773,6.1851,6.1845,6.1857,6.1867,6.189,6.1901,6.1777,6.1777,6.1778,0,6.2338,6.2259,6.2249,6.2162,6.2103,6.2073,6.1971,6.1946,6.1921,6.1794,6.1767,6.1708,6.1624,6.1616,6.1609,6.1571,6.1623,6.1591,6.1603,6.1597,6.1586,6.16,6.1614,6.1441,6.144,6.1439,0,0,6.2267,6.2239,6.212,6.2132,6.2103,6.1993,6.1968,6.1898,6.1826,6.1798,6.1719,6.1652,6.1607,6.1581,6.1534,6.1543,6.1512,6.1554,6.157,6.1583,6.1586,6.1578,6.1592,6.1436,6.1436,6.1436,0,0,6.2232,6.2095,6.2041,6.2042,6.1978,6.186,6.187,6.1801,6.1749,6.1737,6.1619,6.1596,6.1587,6.1533,6.1508,6.1504,6.1435,6.1439,6.1539,6.1557,6.1573,6.1582,6.1388,0,0,0,0,0,6.2075,6.2112,6.2064,6.2049,6.1938,6.1888,6.1872,6.1775,6.1726,6.1736,6.1659,6.1582,6.1493,6.1468,6.1454,6.1481,6.14,6.1406,6.1412,6.1542,6.1562,6.158,0,0,0,0,0,0,6.2068,6.205,6.2063,6.195,6.1923,6.1885,6.178,6.1754,6.1722,6.1708,6.16,6.1579,6.1495,6.1469,6.1457,6.1485,6.1392,6.1402,6.1408,6.1413,6.1549,6.1566,6.158,0,0,0,0,0,6.2062,6.2047,6.1895,6.1948,6.1926,6.1805,6.1778,6.1756,6.1729,6.161,6.1587,6.1658,6.1498,6.1482,6.1461,6.1493,6.1399,6.1395,6.1406,6.141,6.1414,6.1557,0,0,0,0,0,0,6.2058,6.2026,6.1888,6.1877,6.1927,6.1804,6.1782,6.1757,6.1631,6.1608,6.1662,6.1652,6.1501,6.1488,6.1476,6.1501,6.1405,6.1401,6.1399,6.1409,6.1413,6.1416,0,0,0,0,0,0,6.2033,6.2018,6.1883,6.1861,6.1847,6.1805,6.1785,6.1755,6.1631,6.1689,6.1677,6.1659,6.1519,6.1493,6.1483,6.1439,6.1409,6.1406,6.1403,6.1401,6.1412,6.1415,0,0,0,0,0,0,6.2025,6.2011,6.1863,6.1853,6.184,6.1714,6.1776,6.1668,6.1614,6.1697,6.1606,6.1602,6.1526,6.1514,6.1488,6.145,6.1442,6.1409,6.1407,6.1405,6.1404,0,0,0,0,0,0,0,6.2018,6.2131,6.1951,6.1845,6.1834,6.178,6.1777,6.1774,6.1613,6.161,6.1607,6.1604,6.1431,6.1427,6.1422,6.1458,0,0,6.141,6.1408,0,0,0,0,0,0,0,0,6.2134,6.2132,6.1951,6.1949,6.1946,6.1779,6.1777,6.1774,6.1612,6.161,6.1607,6.1605,6.143,6.1426,6.1423,0,0,0,0,0,0,0,0,0,0,0,0,0,0,0,6.1951,6.1949,0,6.1779,6.1777,6.1775,6.1612,6.161,6.1608,6.1606,6.1429,6.1426,6.1423,0,0,0,0,0,0,0,0,0,0,0,0,0,0,0,0,0,0,0,0,0,0,0,0,0,0,0,0,0,0,0,0,0,0,0,0,0,0,0,0,0,0,0,0,0,0,0,0,0,0,0,0,0,0,0,0,0,0,0,0,0,0,0,0,0,0,0,0,0]}]]]